Waukegan, IL

9:15 PM CDT on May 27, 2017 (GMT -0500)
Waukegan Regional

Weather History for KUGN - July, 2013

Change the Weather History Date:

Tuesday, July 2, 2013

  Actual Average Record
Temperature  
Mean Temperature 62 °F -  
Max Temperature 68 °F 80 °F 91 °F (2002)
Min Temperature 55 °F 62 °F 43 °F (2001)
Degree Days  
Heating Degree Days 3 1  
Month to date heating degree days 3 2  
Since 1 June heating degree days 100 88  
Since 1 July heating degree days 3 2  
Cooling Degree Days 0 6  
Month to date cooling degree days 1 12  
Year to date cooling degree days 138 142  
Since 1 June cooling degree days 91 117  
Growing Degree Days 12 (Base 50)    
Moisture  
Dew Point 54 °F    
Average Humidity 76    
Maximum Humidity 93    
Minimum Humidity 58    
Precipitation  
Precipitation 0.04 in 0.11 in 1.37 in (2000)
Month to date precipitation 0.04 0.23  
Year to date precipitation 18.15 16.97  
Sea Level Pressure  
Sea Level Pressure 30.07 in    
Wind  
Wind Speed 6 mph (NNE)    
Max Wind Speed 13 mph    
Max Gust Speed 17 mph    
Visibility 9 miles    
Events Rain    
T = Trace of Precipitation, MM = Missing Value Source: NWS Daily Summary

Daily Weather History Graph

Daily Weather History Graph

Search for Another Location

Airport or City:

Trip Planner

Search our weather history database for the weather conditions in past years. The results will help you decide how hot, cold, wet, or windy it might be!

Date:

Astronomy

Jul. 02, 2013 Rise Set
Actual Time 5:18 AM CDT 8:32 PM CDT
Civil Twilight 4:44 AM CDT 9:06 PM CDT
Nautical Twilight 3:59 AM CDT 9:51 PM CDT
Astronomical Twilight 3:05 AM CDT 10:44 PM CDT
Moon 1:24 AM CDT (7/2) 3:42 PM CDT (7/2)
Length of Visible Light 16h 22m
Length of Day
15h 13m
Waning Crescent, 26% of the Moon is Illuminated
Jul 2
Waning Crescent
Jul 8
New
Jul 15
First Quarter
Jul 22
Full
Jul 29
Last Quarter

Hourly Weather History & Observations

Time (CDT) Temp. Dew Point Humidity Pressure Visibility Wind Dir Wind Speed Gust Speed Precip Events Conditions
12:52 AM 59.0 °F 55.0 °F 87% 30.06 in 10.0 mi North 4.6 mph - N/A   Clear
1:52 AM 57.9 °F 55.0 °F 90% 30.06 in 10.0 mi North 3.5 mph - N/A   Clear
2:52 AM 57.0 °F 54.0 °F 89% 30.06 in 10.0 mi Calm Calm - N/A   Clear
3:52 AM 57.0 °F 54.0 °F 89% 30.06 in 10.0 mi North 3.5 mph - N/A   Clear
4:52 AM 57.9 °F 54.0 °F 87% 30.06 in 10.0 mi NNE 5.8 mph - N/A   Clear
5:52 AM 59.0 °F 52.0 °F 78% 30.07 in 10.0 mi NNE 4.6 mph - N/A   Clear
6:52 AM 61.0 °F 48.9 °F 64% 30.07 in 10.0 mi NNE 8.1 mph - N/A   Clear
7:52 AM 61.0 °F 50.0 °F 67% 30.08 in 10.0 mi North 9.2 mph - N/A   Scattered Clouds
9:23 AM 62.6 °F 50.0 °F 63% 30.11 in 10.0 mi NNE 8.1 mph - N/A   Mostly Cloudy
9:52 AM 63.0 °F 51.1 °F 65% 30.09 in 10.0 mi NNE 9.2 mph - N/A   Partly Cloudy
10:52 AM 64.9 °F 52.0 °F 63% 30.09 in 10.0 mi NE 8.1 mph - N/A   Partly Cloudy
11:52 AM 66.9 °F 52.0 °F 59% 30.09 in 10.0 mi NE 10.4 mph - N/A   Overcast
12:52 PM 64.9 °F 53.1 °F 65% 30.09 in 10.0 mi NE 8.1 mph - N/A   Unknown
1:52 PM 62.1 °F 52.0 °F 70% 30.09 in 10.0 mi NNE 8.1 mph - N/A   Overcast
2:37 PM 59.0 °F 55.4 °F 88% 30.10 in 6.0 mi North 6.9 mph - 0.03 in Rain Light Rain
2:52 PM 60.1 °F 55.9 °F 86% 30.09 in 7.0 mi North 6.9 mph - 0.04 in Rain Light Rain
3:52 PM 62.1 °F 55.9 °F 80% 30.08 in 10.0 mi North 4.6 mph - 0.00 in Rain Light Rain
4:52 PM 62.1 °F 55.0 °F 78% 30.07 in 10.0 mi North 4.6 mph - N/A   Overcast
5:52 PM 62.1 °F 55.0 °F 78% 30.06 in 10.0 mi North 4.6 mph - N/A   Overcast
6:52 PM 61.0 °F 55.0 °F 81% 30.06 in 10.0 mi North 6.9 mph - N/A   Overcast
7:52 PM 61.0 °F 54.0 °F 78% 30.06 in 10.0 mi NNE 8.1 mph - N/A   Overcast
8:29 PM 60.8 °F 53.6 °F 77% 30.07 in 10.0 mi North 3.5 mph - N/A   Overcast
8:52 PM 60.1 °F 54.0 °F 80% 30.06 in 10.0 mi North 5.8 mph - N/A   Overcast
9:52 PM 60.1 °F 55.0 °F 83% 30.07 in 10.0 mi NNE 4.6 mph - N/A   Overcast
10:41 PM 60.8 °F 55.4 °F 82% 30.07 in 10.0 mi NNE 4.6 mph - N/A   Overcast
10:52 PM 60.1 °F 55.9 °F 86% 30.05 in 10.0 mi North 5.8 mph - N/A   Overcast
11:20 PM 60.8 °F 57.2 °F 88% 30.07 in 5.0 mi North 6.9 mph - N/A   Overcast
11:32 PM 59.0 °F 57.2 °F 94% 30.07 in 2.5 mi North 4.6 mph - N/A   Overcast
11:52 PM 59.0 °F 57.9 °F 96% 30.05 in 3.0 mi North 3.5 mph - N/A   Overcast